Hourly Weather Bolshie Tulyany

Today, 16 June, Wednesday

Time Temperature Precipitation Wind Pressure Humidity
00:00 +18°C° 0.1 mm 1 mps 743 mmHg 92%
01:00 +18°C° 0 mm 1 mps 743 mmHg 92%
02:00 +17°C° 0 mm 2 mps 743 mmHg 93%
03:00 +17°C° 0 mm 2 mps 743 mmHg 93%
04:00 +17°C° 0 mm 2 mps 743 mmHg 93%
05:00 +18°C° 0 mm 2 mps 743 mmHg 92%
06:00 +19°C° 0 mm 2 mps 743 mmHg 91%
07:00 +20°C° 0 mm 2 mps 743 mmHg 86%
08:00 +23°C° 0 mm 2 mps 743 mmHg 80%
09:00 +25°C° 0 mm 2 mps 744 mmHg 74%
10:00 +26°C° 0.1 mm 2 mps 744 mmHg 69%
11:00 +26°C° 0.1 mm 2 mps 744 mmHg 64%
12:00 +27°C° 0.1 mm 2 mps 744 mmHg 59%
13:00 +27°C° 0.3 mm 2 mps 744 mmHg 60%
14:00 +27°C° 0.3 mm 2 mps 745 mmHg 61%
15:00 +27°C° 0.3 mm 3 mps 745 mmHg 63%
16:00 +26°C° 0.5 mm 3 mps 745 mmHg 68%
17:00 +26°C° 0.5 mm 3 mps 745 mmHg 74%
18:00 +25°C° 0.5 mm 3 mps 745 mmHg 79%
19:00 +22°C° 0.3 mm 3 mps 746 mmHg 83%
20:00 +21°C° 0.3 mm 3 mps 746 mmHg 87%
21:00 +20°C° 0.3 mm 2 mps 746 mmHg 90%
22:00 +19°C° 0 mm 2 mps 747 mmHg 91%
23:00 +18°C° 0 mm 3 mps 747 mmHg 92%

Tomorrow, 17 June, Thursday

Time Temperature Precipitation Wind Pressure Humidity
00:00 +18°C° 0 mm 3 mps 747 mmHg 93%
01:00 +17°C° 0 mm 3 mps 748 mmHg 94%
02:00 +17°C° 0 mm 3 mps 748 mmHg 94%
03:00 +16°C° 0 mm 3 mps 749 mmHg 95%
04:00 +17°C° 0 mm 3 mps 749 mmHg 93%
05:00 +17°C° 0 mm 3 mps 749 mmHg 91%
06:00 +17°C° 0 mm 3 mps 750 mmHg 89%
07:00 +18°C° 0 mm 4 mps 750 mmHg 82%
08:00 +20°C° 0 mm 4 mps 750 mmHg 74%
09:00 +21°C° 0 mm 5 mps 751 mmHg 66%
10:00 +22°C° 0 mm 5 mps 751 mmHg 61%
11:00 +22°C° 0 mm 5 mps 752 mmHg 56%
12:00 +23°C° 0 mm 5 mps 752 mmHg 51%
13:00 +23°C° 0 mm 5 mps 752 mmHg 51%
14:00 +23°C° 0 mm 5 mps 752 mmHg 51%
15:00 +23°C° 0 mm 5 mps 752 mmHg 51%
16:00 +23°C° 0 mm 5 mps 752 mmHg 56%
17:00 +22°C° 0 mm 4 mps 753 mmHg 60%
18:00 +22°C° 0 mm 4 mps 753 mmHg 65%
19:00 +20°C° 0 mm 4 mps 753 mmHg 70%
20:00 +18°C° 0 mm 3 mps 753 mmHg 75%
21:00 +16°C° 0 mm 3 mps 754 mmHg 80%
22:00 +16°C° 0 mm 3 mps 754 mmHg 81%
23:00 +14°C° 0 mm 3 mps 754 mmHg 81%

Day after tomorrow, 18 June, Friday

Time Temperature Precipitation Wind Pressure Humidity
00:00 +13°C° 0 mm 3 mps 754 mmHg 81%
01:00 +13°C° 0 mm 3 mps 755 mmHg 81%
02:00 +12°C° 0 mm 3 mps 755 mmHg 81%
03:00 +12°C° 0 mm 3 mps 755 mmHg 81%
04:00 +13°C° 0 mm 3 mps 755 mmHg 80%
05:00 +13°C° 0 mm 3 mps 756 mmHg 80%
06:00 +14°C° 0 mm 3 mps 756 mmHg 79%
07:00 +17°C° 0 mm 4 mps 756 mmHg 72%
08:00 +18°C° 0 mm 4 mps 757 mmHg 65%
09:00 +20°C° 0 mm 4 mps 757 mmHg 58%
10:00 +21°C° 0 mm 4 mps 757 mmHg 55%
11:00 +22°C° 0 mm 5 mps 757 mmHg 52%
12:00 +22°C° 0 mm 5 mps 757 mmHg 49%
13:00 +23°C° 0 mm 5 mps 757 mmHg 49%
14:00 +23°C° 0 mm 4 mps 757 mmHg 50%
15:00 +23°C° 0 mm 4 mps 757 mmHg 50%
16:00 +23°C° 0 mm 4 mps 757 mmHg 55%
17:00 +22°C° 0 mm 3 mps 757 mmHg 59%
18:00 +22°C° 0 mm 3 mps 757 mmHg 64%
19:00 +20°C° 0 mm 3 mps 757 mmHg 69%
20:00 +18°C° 0 mm 2 mps 757 mmHg 75%
21:00 +17°C° 0 mm 2 mps 757 mmHg 81%
22:00 +16°C° 0 mm 2 mps 758 mmHg 82%
23:00 +15°C° 0 mm 2 mps 758 mmHg 83%

19 June, Saturday

Time Temperature Precipitation Wind Pressure Humidity
00:00 +15°C° 0 mm 2 mps 758 mmHg 85%
01:00 +14°C° 0 mm 1 mps 758 mmHg 85%
02:00 +14°C° 0 mm 1 mps 758 mmHg 85%
03:00 +13°C° 0 mm 1 mps 758 mmHg 85%
04:00 +14°C° 0 mm 1 mps 759 mmHg 83%
05:00 +15°C° 0 mm 1 mps 759 mmHg 80%
06:00 +16°C° 0 mm 1 mps 759 mmHg 78%
07:00 +19°C° 0 mm 1 mps 759 mmHg 72%
08:00 +20°C° 0 mm 1 mps 759 mmHg 67%
09:00 +21°C° 0 mm 2 mps 759 mmHg 62%
10:00 +23°C° 0 mm 2 mps 759 mmHg 59%
11:00 +24°C° 0 mm 2 mps 759 mmHg 57%
12:00 +25°C° 0 mm 2 mps 758 mmHg 54%
13:00 +25°C° 0 mm 2 mps 758 mmHg 54%
14:00 +26°C° 0 mm 2 mps 758 mmHg 53%
15:00 +26°C° 0 mm 2 mps 758 mmHg 52%
16:00 +26°C° 0 mm 2 mps 757 mmHg 55%
17:00 +26°C° 0 mm 1 mps 757 mmHg 58%
18:00 +25°C° 0 mm 1 mps 757 mmHg 62%
19:00 +23°C° 0 mm 1 mps 757 mmHg 67%
20:00 +22°C° 0 mm 1 mps 757 mmHg 72%
21:00 +18°C° 0 mm 0 mps 757 mmHg 77%
22:00 +17°C° 0 mm 0 mps 757 mmHg 78%
23:00 +17°C° 0 mm 0 mps 757 mmHg 79%

20 June, Sunday

Time Temperature Precipitation Wind Pressure Humidity
00:00 +16°C° 0 mm 0 mps 757 mmHg 81%
01:00 +16°C° 0 mm 0 mps 757 mmHg 82%
02:00 +16°C° 0 mm 1 mps 757 mmHg 84%
03:00 +16°C° 0 mm 1 mps 757 mmHg 85%
04:00 +18°C° 0 mm 1 mps 757 mmHg 84%
05:00 +19°C° 0 mm 1 mps 757 mmHg 82%
06:00 +20°C° 0 mm 1 mps 757 mmHg 81%
07:00 +21°C° 0 mm 1 mps 757 mmHg 77%
08:00 +23°C° 0 mm 1 mps 757 mmHg 73%
09:00 +25°C° 0 mm 2 mps 757 mmHg 68%
10:00 +26°C° 0 mm 2 mps 757 mmHg 65%
11:00 +27°C° 0 mm 2 mps 757 mmHg 61%
12:00 +28°C° 0 mm 1 mps 756 mmHg 58%
13:00 +28°C° 0 mm 1 mps 756 mmHg 56%
14:00 +29°C° 0 mm 1 mps 756 mmHg 55%
15:00 +29°C° 0 mm 1 mps 756 mmHg 53%
16:00 +29°C° 0 mm 1 mps 755 mmHg 57%
17:00 +29°C° 0 mm 1 mps 755 mmHg 61%
18:00 +28°C° 0 mm 1 mps 755 mmHg 64%
19:00 +26°C° 0 mm 1 mps 755 mmHg 70%
20:00 +25°C° 0 mm 1 mps 755 mmHg 75%
21:00 +23°C° 0 mm 1 mps 755 mmHg 80%
22:00 +22°C° 0 mm 1 mps 755 mmHg 82%
23:00 +22°C° 0 mm 1 mps 755 mmHg 84%

21 June, Monday

Time Temperature Precipitation Wind Pressure Humidity
00:00 +21°C° 0 mm 1 mps 755 mmHg 86%
01:00 +21°C° 0 mm 1 mps 755 mmHg 87%
02:00 +20°C° 0 mm 1 mps 755 mmHg 88%
03:00 +20°C° 0 mm 1 mps 755 mmHg 89%
04:00 +21°C° 0 mm 1 mps 755 mmHg 87%
05:00 +22°C° 0 mm 1 mps 755 mmHg 86%
06:00 +22°C° 0 mm 1 mps 755 mmHg 84%
07:00 +24°C° 0 mm 1 mps 755 mmHg 79%
08:00 +25°C° 0 mm 2 mps 755 mmHg 74%
09:00 +27°C° 0 mm 2 mps 755 mmHg 69%
10:00 +28°C° 0 mm 2 mps 754 mmHg 65%
11:00 +28°C° 0 mm 2 mps 754 mmHg 61%
12:00 +29°C° 0 mm 2 mps 754 mmHg 57%
13:00 +30°C° 0 mm 2 mps 754 mmHg 55%
14:00 +30°C° 0 mm 2 mps 754 mmHg 52%
15:00 +31°C° 0 mm 2 mps 753 mmHg 50%
16:00 +30°C° 0 mm 1 mps 753 mmHg 54%
17:00 +30°C° 0 mm 1 mps 753 mmHg 58%
18:00 +29°C° 0 mm 1 mps 753 mmHg 62%
19:00 +28°C° 0 mm 1 mps 753 mmHg 65%
20:00 +26°C° 0 mm 2 mps 753 mmHg 69%
21:00 +24°C° 0 mm 2 mps 753 mmHg 72%
22:00 +24°C° 0 mm 2 mps 753 mmHg 74%
23:00 +23°C° 0 mm 2 mps 753 mmHg 75%
Show more